Voltar ao catálogo

STARLINK-30288

AtivoComunicaçõesVLEO
NORAD 57698·PAYLOAD·🇺🇸 United States

Lançado Aug 27, 2023 de Cape Canaveral Space Force Station

Loading…

Próximas Passagens (próximas 24 horas)

TLE

AtualizadoSource: CelesTrak SupGP

Época: Sep 15, 2026, 02:42 UTC

1 57698C 23129A   26258.11298611  .00069441  00000+0  25146-2 0  2585
2 57698  43.0008 128.5247 0001436 274.2669 240.7597 15.27550640    11

Acompanhe STARLINK-30288 em tempo real com AllMySat

Download on the App Store